This is the latest recevied weather packets stored in our database for station/object E24CR-1. If no packets are shown the sender has not sent any weather packets the latest 1 day(s).
| Time | Temp. | Humidity | Pressure | Rain* | Wind** | Luminosity | Snow |
|---|---|---|---|---|---|---|---|
| 1777998870 | 28.89° C | 64% | 953 hPa | - | 0 m/s | 0 W/m² | - |
| 1777998245 | 28.33° C | 64% | 953 hPa | - | 0 m/s | 0 W/m² | - |
| 1777997621 | 27.78° C | 66% | 953 hPa | - | 0 m/s | 0 W/m² | - |
| 1777996997 | 27.78° C | 67% | 953 hPa | - | 0 m/s | 0 W/m² | - |
| 1777996373 | 28.33° C | 66% | 953 hPa | - | 0 m/s | 0 W/m² | - |
| 1777995748 | 28.89° C | 64% | 953 hPa | - | 0 m/s | 0 W/m² | - |
| 1777995124 | 28.89° C | 64% | 953 hPa | - | 0 m/s | 0 W/m² | - |
| 1777994500 | 28.89° C | 63% | 953 hPa | - | 0 m/s | 0 W/m² | - |
| 1777993876 | 28.89° C | 64% | 952 hPa | - | 0 m/s | 0 W/m² | - |
| 1777993252 | 28.89° C | 63% | 952 hPa | - | 0 m/s | 0 W/m² | - |
| 1777992627 | 28.33° C | 65% | 952 hPa | - | 0 m/s | 0 W/m² | - |
| 1777992003 | 28.33° C | 64% | 952 hPa | - | 0 m/s | 0 W/m² | - |
| 1777991379 | 28.33° C | 62% | 952 hPa | - | 0 m/s | 0 W/m² | - |
| 1777990755 | 28.33° C | 62% | 952 hPa | - | 0 m/s | 0 W/m² | - |
| 1777990125 | 28.33° C | 62% | 951 hPa | - | 0 m/s | 0 W/m² | - |
| 1777989496 | 28.33° C | 62% | 951 hPa | - | 0 m/s | 0 W/m² | - |
| 1777988872 | 28.33° C | 59% | 951 hPa | - | 0 m/s | 0 W/m² | - |
| 1777988248 | 28.33° C | 59% | 951 hPa | - | 0 m/s | 0 W/m² | - |
| 1777987624 | 28.33° C | 59% | 951 hPa | - | 0 m/s | 0 W/m² | - |
| 1777987000 | 28.33° C | 61% | 950 hPa | - | 0 m/s | 0 W/m² | - |
| 1777986376 | 28.89° C | 64% | 950 hPa | - | 0 m/s | 0 W/m² | - |
| 1777985751 | 28.89° C | 64% | 950 hPa | - | 0 m/s | 0 W/m² | - |
| 1777985127 | 29.44° C | 63% | 950 hPa | - | 0 m/s | 0 W/m² | - |
| 1777984503 | 29.44° C | 62% | 950 hPa | - | 0 m/s | 0 W/m² | - |
| 1777983874 | 29.44° C | 61% | 950 hPa | - | 0 m/s | 0 W/m² | - |
* Rain since midnight (hover to see other rain measurements)
** Current wind speed in m/s (hover to see current wind gust speed)